,,,PA_Meas_PMT16A,,PR_Meas_QMR101_102,,RH_Meas_QMH101,,SR_Meas_QMS101,,TA_Meas_QMH101,,GenWind,,GenWind,
date,time,status,PA,status,PR,status,RH,status,SR,status,TA,status,DirAvg,status,SpdAvg,
2009-09-21, 00:00:05,VALID,1004.92,VALID,0,VALID,85.7181,VALID,0,VALID,26.3323,VALID,35,VALID,1.25273,
2009-09-21, 00:01:05,VALID,1004.9,VALID,0,VALID,85.7028,VALID,0,VALID,26.3323,VALID,33,VALID,1.21523,
2009-09-21, 00:02:05,VALID,1004.87,VALID,0,VALID,85.7105,VALID,0,VALID,26.3323,VALID,31,VALID,1.10977,
2009-09-21, 00:03:05,VALID,1004.86,VALID,0,VALID,85.5426,VALID,0,VALID,26.3927,VALID,35,VALID,1.01289,
2009-09-21, 00:04:05,VALID,1004.85,VALID,0,VALID,85.535,VALID,0,VALID,26.3907,VALID,25,VALID,0.950391,
2009-09-21, 00:05:05,VALID,1004.81,VALID,0,VALID,85.5808,VALID,0,VALID,26.3907,VALID,56,VALID,0.839453,
2009-09-21, 00:06:05,VALID,1004.81,VALID,0,VALID,85.5274,VALID,0,VALID,26.3907,VALID,15,VALID,0.741797,
2009-09-21, 00:07:05,VALID,1004.78,VALID,0,VALID,85.596,VALID,0,VALID,26.4122,VALID,29,VALID,1.03828,
2009-09-21, 00:08:05,VALID,1004.74,VALID,0,VALID,85.5274,VALID,0,VALID,26.3713,VALID,18,VALID,1.05273,
2009-09-21, 00:09:05,VALID,1004.74,VALID,0,VALID,85.7562,VALID,0,VALID,26.3518,VALID,8,VALID,0.695703,
2009-09-21, 00:10:05,VALID,1004.7,VALID,0,VALID,85.7334,VALID,0,VALID,26.3323,VALID,18,VALID,1.09063,
2009-09-21, 00:11:05,VALID,1004.69,VALID,0,VALID,85.6952,VALID,0,VALID,26.3128,VALID,28,VALID,1.24297,
2009-09-21, 00:12:05,VALID,1004.64,VALID,0,VALID,85.8707,VALID,0.100563,VALID,26.3323,VALID,27,VALID,0.722266,
2009-09-21, 00:13:05,VALID,1004.6,VALID,0,VALID,85.9165,VALID,0.100563,VALID,26.3128,VALID,31,VALID,0.875781,
2009-09-21, 00:14:05,VALID,1004.59,VALID,0,VALID,86.0995,VALID,0.100563,VALID,26.2913,VALID,21,VALID,0.521484,
2009-09-21, 00:15:05,VALID,1004.55,VALID,0,VALID,86.2445,VALID,0,VALID,26.2329,VALID,34,VALID,0.628516,
2009-09-21, 00:16:05,VALID,1004.54,VALID,0,VALID,86.3971,VALID,0,VALID,26.1959,VALID,29,VALID,0.786328,
2009-09-21, 00:17:05,VALID,1004.51,VALID,0,VALID,86.6107,VALID,0,VALID,26.155,VALID,10,VALID,0.823438,
2009-09-21, 00:18:05,VALID,1004.48,VALID,0,VALID,86.6412,VALID,0,VALID,26.1355,VALID,24,VALID,0.601172,
2009-09-21, 00:19:05,VALID,1004.47,VALID,0,VALID,86.7785,VALID,0,VALID,26.118,VALID,11,VALID,0.721094,
2009-09-21, 00:20:05,VALID,1004.46,VALID,0,VALID,87.0837,VALID,0,VALID,26.0576,VALID,9,VALID,0.457031,
2009-09-21, 00:21:05,VALID,1004.46,VALID,0,VALID,87.2286,VALID,0,VALID,26.0206,VALID,50,VALID,0.673047,
2009-09-21, 00:22:05,VALID,1004.45,VALID,0,VALID,87.2744,VALID,0,VALID,25.9992,VALID,27,VALID,0.950781,
2009-09-21, 00:23:05,VALID,1004.47,VALID,0,VALID,87.3812,VALID,0,VALID,25.9797,VALID,359,VALID,0.664063,
2009-09-21, 00:24:05,VALID,1004.48,VALID,0,VALID,87.3736,VALID,0,VALID,25.9602,VALID,27,VALID,1.13633,
2009-09-21, 00:25:05,VALID,1004.5,VALID,0,VALID,87.2744,VALID,0,VALID,25.9797,VALID,33,VALID,0.860547,
2009-09-21, 00:26:05,VALID,1004.54,VALID,0,VALID,87.3049,VALID,0,VALID,25.9602,VALID,32,VALID,0.672266,
2009-09-21, 00:27:05,VALID,1004.55,VALID,0,VALID,87.4651,VALID,0,VALID,25.9018,VALID,33,VALID,0.750391,
2009-09-21, 00:28:05,VALID,1004.56,VALID,0,VALID,87.6635,VALID,0,VALID,25.8629,VALID,37,VALID,0.705078,
2009-09-21, 00:29:05,VALID,1004.59,VALID,0,VALID,87.9686,VALID,0,VALID,25.785,VALID,37,VALID,0.795703,
2009-09-21, 00:30:05,VALID,1004.59,VALID,0,VALID,88.3501,VALID,0,VALID,25.748,VALID,33,VALID,0.569141,
2009-09-21, 00:31:05,VALID,1004.6,VALID,0,VALID,88.6552,VALID,0,VALID,25.709,VALID,27,VALID,0.616406,
2009-09-21, 00:32:05,VALID,1004.6,VALID,0,VALID,88.8459,VALID,0,VALID,25.67,VALID,27,VALID,0.612109,
2009-09-21, 00:33:05,VALID,1004.6,VALID,0,VALID,89.0595,VALID,0,VALID,25.6116,VALID,27,VALID,0.635938,
2009-09-21, 00:34:05,VALID,1004.63,VALID,0,VALID,89.296,VALID,0,VALID,25.5318,VALID,27,VALID,0.500391,
2009-09-21, 00:35:05,VALID,1004.64,VALID,0,VALID,89.5707,VALID,0,VALID,25.4928,VALID,27,VALID,0.510547,
2009-09-21, 00:36:05,VALID,1004.65,VALID,0,VALID,89.7538,VALID,0,VALID,25.4539,VALID,25,VALID,0.691797,
2009-09-21, 00:37:05,VALID,1004.63,VALID,0,VALID,89.7919,VALID,0,VALID,25.4734,VALID,31,VALID,0.725781,
2009-09-21, 00:38:05,VALID,1004.62,VALID,0,VALID,89.6088,VALID,0,VALID,25.5532,VALID,30,VALID,0.671484,
2009-09-21, 00:39:05,VALID,1004.61,VALID,0,VALID,89.4791,VALID,0,VALID,25.5532,VALID,29,VALID,0.499609,
2009-09-21, 00:40:05,VALID,1004.6,VALID,0,VALID,89.5097,VALID,0,VALID,25.5727,VALID,29,VALID,0.64375,
2009-09-21, 00:41:05,VALID,1004.6,VALID,0,VALID,89.4868,VALID,0,VALID,25.5318,VALID,18,VALID,0.575391,
2009-09-21, 00:42:05,VALID,1004.57,VALID,0,VALID,89.5707,VALID,0,VALID,25.5513,VALID,18,VALID,0.494922,
2009-09-21, 00:43:05,VALID,1004.58,VALID,0,VALID,89.6393,VALID,0,VALID,25.5337,VALID,18,VALID,0.774609,
2009-09-21, 00:44:05,VALID,1004.6,VALID,0,VALID,89.6546,VALID,0,VALID,25.5318,VALID,8,VALID,0.873828,
2009-09-21, 00:45:05,VALID,1004.59,VALID,0,VALID,89.5859,VALID,0.100563,VALID,25.5513,VALID,20,VALID,0.626172,
2009-09-21, 00:46:05,VALID,1004.58,VALID,0,VALID,89.6393,VALID,0,VALID,25.5513,VALID,23,VALID,0.863672,
2009-09-21, 00:47:05,VALID,1004.59,VALID,0,VALID,89.647,VALID,0.100563,VALID,25.6097,VALID,8,VALID,0.436719,
2009-09-21, 00:48:05,VALID,1004.6,VALID,0,VALID,89.7004,VALID,0,VALID,25.6097,VALID,360,VALID,0.50625,
2009-09-21, 00:49:05,VALID,1004.58,VALID,0,VALID,89.6088,VALID,0.100563,VALID,25.6486,VALID,6,VALID,0.503906,
2009-09-21, 00:50:05,VALID,1004.61,VALID,0,VALID,89.3952,VALID,0,VALID,25.6895,VALID,357,VALID,0.658984,
2009-09-21, 00:51:05,VALID,1004.59,VALID,0,VALID,89.1435,VALID,0,VALID,25.7071,VALID,358,VALID,0.667969,
2009-09-21, 00:52:05,VALID,1004.55,VALID,0,VALID,88.9985,VALID,0,VALID,25.7869,VALID,359,VALID,0.811719,
2009-09-21, 00:53:05,VALID,1004.53,VALID,0,VALID,88.8841,VALID,0,VALID,25.8239,VALID,16,VALID,0.827344,
2009-09-21, 00:54:05,VALID,1004.47,VALID,0,VALID,88.8002,VALID,0,VALID,25.8629,VALID,5,VALID,0.284766,
2009-09-21, 00:55:05,VALID,1004.46,VALID,0,VALID,88.6705,VALID,0,VALID,25.9038,VALID,358,VALID,0.517969,
2009-09-21, 00:56:05,VALID,1004.44,VALID,0,VALID,88.4416,VALID,0,VALID,25.9427,VALID,2,VALID,0.691406,
2009-09-21, 00:57:05,VALID,1004.43,VALID,0,VALID,88.2967,VALID,0,VALID,25.9602,VALID,15,VALID,0.812891,
2009-09-21, 00:58:05,VALID,1004.43,VALID,0,VALID,88.1136,VALID,0,VALID,25.9777,VALID,355,VALID,0.721484,
2009-09-21, 00:59:05,VALID,1004.43,VALID,0,VALID,87.8923,VALID,0.100563,VALID,26.0596,VALID,354,VALID,0.870703,
2009-09-21, 01:00:05,VALID,1004.43,VALID,0,VALID,87.7245,VALID,0,VALID,26.0966,VALID,28,VALID,0.985156,
2009-09-21, 01:01:05,VALID,1004.43,VALID,0,VALID,87.3659,VALID,0.100563,VALID,26.1765,VALID,2,VALID,0.878125,
2009-09-21, 01:02:05,VALID,1004.44,VALID,0,VALID,87.3202,VALID,0.100563,VALID,26.194,VALID,21,VALID,1.03945,
2009-09-21, 01:03:05,VALID,1004.45,VALID,0,VALID,87.282,VALID,0,VALID,26.2134,VALID,354,VALID,0.776953,
2009-09-21, 01:04:05,VALID,1004.43,VALID,0,VALID,87.2973,VALID,0,VALID,26.2524,VALID,3,VALID,1.06016,
2009-09-21, 01:05:05,VALID,1004.43,VALID,0,VALID,87.1676,VALID,0.100563,VALID,26.2933,VALID,5,VALID,0.583594,
2009-09-21, 01:06:05,VALID,1004.41,VALID,0,VALID,87.1905,VALID,0,VALID,26.3128,VALID,2,VALID,0.817969,
2009-09-21, 01:07:05,VALID,1004.41,VALID,0,VALID,87.3278,VALID,0,VALID,26.3128,VALID,13,VALID,0.736328,
2009-09-21, 01:08:05,VALID,1004.39,VALID,0,VALID,87.0226,VALID,0,VALID,26.2933,VALID,352,VALID,0.879297,
2009-09-21, 01:09:05,VALID,1004.35,VALID,0,VALID,86.542,VALID,0,VALID,26.2913,VALID,355,VALID,1.62656,
2009-09-21, 01:10:05,VALID,1004.36,VALID,0,VALID,86.2064,VALID,0,VALID,26.3303,VALID,7,VALID,0.705469,
2009-09-21, 01:11:05,VALID,1004.36,VALID,0,VALID,86.0995,VALID,0,VALID,26.4102,VALID,20,VALID,0.989453,
2009-09-21, 01:12:05,VALID,1004.36,VALID,0,VALID,85.3977,VALID,0,VALID,26.3887,VALID,30,VALID,1.90078,
2009-09-21, 01:13:05,VALID,1004.35,VALID,0,VALID,85.0468,VALID,0.100563,VALID,26.4277,VALID,28,VALID,1.93555,
2009-09-21, 01:14:05,VALID,1004.37,VALID,0,VALID,85.1993,VALID,0,VALID,26.4472,VALID,9,VALID,1.27734,
2009-09-21, 01:15:05,VALID,1004.37,VALID,0,VALID,85.2375,VALID,0,VALID,26.4277,VALID,16,VALID,1.2418,
2009-09-21, 01:16:05,VALID,1004.39,VALID,0,VALID,85.1993,VALID,0,VALID,26.4082,VALID,8,VALID,1.14375,
2009-09-21, 01:17:05,VALID,1004.38,VALID,0,VALID,85.3672,VALID,0,VALID,26.4297,VALID,9,VALID,0.891406,
2009-09-21, 01:18:05,VALID,1004.36,VALID,0,VALID,85.1002,VALID,0,VALID,26.3713,VALID,357,VALID,1.11563,
2009-09-21, 01:19:05,VALID,1004.37,VALID,0,VALID,85.1307,VALID,0,VALID,26.3518,VALID,354,VALID,0.997266,
2009-09-21, 01:20:05,VALID,1004.36,VALID,0,VALID,84.9552,VALID,0,VALID,26.3108,VALID,8,VALID,1.22227,
2009-09-21, 01:21:05,VALID,1004.37,VALID,0,VALID,85.062,VALID,0,VALID,26.3323,VALID,5,VALID,0.944531,
2009-09-21, 01:22:05,VALID,1004.35,VALID,0,VALID,85.1841,VALID,0,VALID,26.3303,VALID,22,VALID,0.765234,
2009-09-21, 01:23:05,VALID,1004.32,VALID,0,VALID,84.795,VALID,0.100563,VALID,26.3108,VALID,358,VALID,1.52148,
2009-09-21, 01:24:05,VALID,1004.3,VALID,0,VALID,84.9247,VALID,0,VALID,26.3108,VALID,352,VALID,0.925781,
2009-09-21, 01:25:05,VALID,1004.29,VALID,0,VALID,84.6729,VALID,0,VALID,26.3303,VALID,17,VALID,1.47891,
2009-09-21, 01:26:05,VALID,1004.26,VALID,0,VALID,84.5967,VALID,0.100563,VALID,26.3303,VALID,6,VALID,1.09023,
2009-09-21, 01:27:05,VALID,1004.27,VALID,0,VALID,84.7187,VALID,0,VALID,26.3303,VALID,51,VALID,0.778906,
2009-09-21, 01:28:05,VALID,1004.27,VALID,0,VALID,84.5127,VALID,0.100563,VALID,26.2913,VALID,6,VALID,1.03516,
2009-09-21, 01:29:05,VALID,1004.23,VALID,0,VALID,84.7035,VALID,0,VALID,26.2913,VALID,348,VALID,0.637109,
2009-09-21, 01:30:05,VALID,1004.21,VALID,0,VALID,84.261,VALID,0,VALID,26.2524,VALID,11,VALID,0.85,
2009-09-21, 01:31:05,VALID,1004.2,VALID,0,VALID,84.3525,VALID,0,VALID,26.2719,VALID,339,VALID,0.697266,
2009-09-21, 01:32:05,VALID,1004.22,VALID,0,VALID,84.2305,VALID,0,VALID,26.2739,VALID,352,VALID,0.348828,
2009-09-21, 01:33:05,VALID,1004.18,VALID,0,VALID,83.9406,VALID,0,VALID,26.2933,VALID,357,VALID,0.871875,
2009-09-21, 01:34:05,VALID,1004.15,VALID,0,VALID,83.8185,VALID,0.100563,VALID,26.3128,VALID,356,VALID,1.09297,
2009-09-21, 01:35:05,VALID,1004.13,VALID,0,VALID,83.5515,VALID,0.100563,VALID,26.3128,VALID,16,VALID,1.1418,
2009-09-21, 01:36:05,VALID,1004.14,VALID,0,VALID,83.5973,VALID,0.100563,VALID,26.3128,VALID,356,VALID,0.437109,
2009-09-21, 01:37:05,VALID,1004.13,VALID,0,VALID,83.2997,VALID,0.100563,VALID,26.2913,VALID,16,VALID,1.84375,
2009-09-21, 01:38:05,VALID,1004.12,VALID,0,VALID,82.5597,VALID,0,VALID,26.3303,VALID,10,VALID,0.721484,
2009-09-21, 01:39:05,VALID,1004.11,VALID,0,VALID,82.2775,VALID,0,VALID,26.3713,VALID,46,VALID,0.886328,
2009-09-21, 01:40:05,VALID,1004.11,VALID,0,VALID,82.4377,VALID,0,VALID,26.3498,VALID,38,VALID,0.222656,
2009-09-21, 01:41:05,VALID,1004.08,VALID,0,VALID,81.8884,VALID,0.100563,VALID,26.3713,VALID,17,VALID,0.390234,
2009-09-21, 01:42:05,VALID,1004.05,VALID,0,VALID,81.6824,VALID,0,VALID,26.3693,VALID,41,VALID,0.426562,
2009-09-21, 01:43:05,VALID,1004.03,VALID,0,VALID,82.0715,VALID,0,VALID,26.3887,VALID,34,VALID,0.38125,
2009-09-21, 01:44:05,VALID,1004.03,VALID,0,VALID,82.5979,VALID,0,VALID,26.3693,VALID,155,VALID,0.298047,
2009-09-21, 01:45:05,VALID,1003.99,VALID,0,VALID,82.5903,VALID,0,VALID,26.3518,VALID,172,VALID,0.610547,
2009-09-21, 01:46:05,VALID,1004.01,VALID,0,VALID,82.7734,VALID,0,VALID,26.3323,VALID,173,VALID,0.557031,
2009-09-21, 01:47:04,VALID,1003.97,VALID,0,VALID,83.3684,VALID,0.100563,VALID,26.2719,VALID,173,VALID,0.562891,
2009-09-21, 01:48:04,VALID,1003.99,VALID,0,VALID,84.3602,VALID,0.100563,VALID,26.2544,VALID,169,VALID,0.6875,
2009-09-21, 01:49:04,VALID,1003.92,VALID,0,VALID,85.1765,VALID,0,VALID,26.1959,VALID,185,VALID,1.0832,
2009-09-21, 01:50:04,VALID,1003.91,VALID,0,VALID,85.7791,VALID,0.100563,VALID,26.116,VALID,184,VALID,0.576563,
2009-09-21, 01:51:04,VALID,1003.9,VALID,0,VALID,86.0767,VALID,0,VALID,26.0791,VALID,182,VALID,0.951563,
2009-09-21, 01:52:04,VALID,1003.9,VALID,0,VALID,86.4352,VALID,0,VALID,26.0206,VALID,183,VALID,0.405859,
2009-09-21, 01:53:04,VALID,1003.87,VALID,0,VALID,86.4734,VALID,0,VALID,25.9622,VALID,183,VALID,0.324609,
2009-09-21, 01:54:04,VALID,1003.85,VALID,0,VALID,86.4734,VALID,0,VALID,25.9232,VALID,183,VALID,0.298047,
2009-09-21, 01:55:04,VALID,1003.86,VALID,0,VALID,86.9845,VALID,0.100563,VALID,25.8823,VALID,183,VALID,0.0984375,
2009-09-21, 01:56:04,VALID,1003.84,VALID,0,VALID,87.1142,VALID,0,VALID,25.8648,VALID,183,VALID,0.286328,
2009-09-21, 01:57:04,VALID,1003.85,VALID,0,VALID,87.1066,VALID,0,VALID,25.8259,VALID,183,VALID,0,
2009-09-21, 01:58:04,VALID,1003.83,VALID,0,VALID,87.0226,VALID,0,VALID,25.8044,VALID,183,VALID,0,
2009-09-21, 01:59:04,VALID,1003.87,VALID,0,VALID,87.221,VALID,0,VALID,25.785,VALID,183,VALID,0,
2009-09-21, 02:00:04,VALID,1003.85,VALID,0,VALID,87.4117,VALID,0,VALID,25.7869,VALID,183,VALID,0,
2009-09-21, 02:01:04,VALID,1003.86,VALID,0,VALID,87.9152,VALID,0,VALID,25.7265,VALID,183,VALID,0,
2009-09-21, 02:02:04,VALID,1003.85,VALID,0,VALID,88.2814,VALID,0,VALID,25.6895,VALID,183,VALID,0,
2009-09-21, 02:03:04,VALID,1003.87,VALID,0,VALID,88.6552,VALID,0,VALID,25.6506,VALID,183,VALID,0,
2009-09-21, 02:04:04,VALID,1003.89,VALID,0,VALID,88.9909,VALID,0,VALID,25.5921,VALID,183,VALID,0,
2009-09-21, 02:05:04,VALID,1003.94,VALID,0,VALID,88.8765,VALID,0,VALID,25.5532,VALID,183,VALID,0,
2009-09-21, 02:06:04,VALID,1003.92,VALID,0,VALID,89.0672,VALID,0,VALID,25.4928,VALID,183,VALID,0,
2009-09-21, 02:07:04,VALID,1003.94,VALID,0,VALID,89.235,VALID,0,VALID,25.4169,VALID,80,VALID,0,
2009-09-21, 02:08:04,VALID,1003.96,VALID,0,VALID,89.5631,VALID,0,VALID,25.337,VALID,80,VALID,0,
2009-09-21, 02:09:04,VALID,1003.94,VALID,0,VALID,89.9979,VALID,0,VALID,25.2786,VALID,80,VALID,0,
2009-09-21, 02:10:04,VALID,1003.93,VALID,0,VALID,90.2725,VALID,0,VALID,25.2397,VALID,80,VALID,0,
2009-09-21, 02:11:04,VALID,1003.93,VALID,0,VALID,90.4862,VALID,0,VALID,25.2221,VALID,80,VALID,0,
2009-09-21, 02:12:04,VALID,1003.88,VALID,0,VALID,90.5548,VALID,0,VALID,25.2435,VALID,80,VALID,0,
2009-09-21, 02:13:04,VALID,1003.88,VALID,0,VALID,90.7074,VALID,0,VALID,25.2027,VALID,80,VALID,0,
2009-09-21, 02:14:04,VALID,1003.87,VALID,0,VALID,90.8752,VALID,0,VALID,25.1832,VALID,80,VALID,0,
2009-09-21, 02:15:04,VALID,1003.86,VALID,0,VALID,90.9286,VALID,0,VALID,25.1637,VALID,80,VALID,0,
2009-09-21, 02:16:04,VALID,1003.87,VALID,0,VALID,91.0125,VALID,0,VALID,25.1423,VALID,80,VALID,0,
2009-09-21, 02:17:04,VALID,1003.85,VALID,0,VALID,90.9973,VALID,0,VALID,25.1637,VALID,80,VALID,0,
2009-09-21, 02:18:04,VALID,1003.85,VALID,0,VALID,91.1041,VALID,0,VALID,25.1229,VALID,80,VALID,0,
2009-09-21, 02:19:04,VALID,1003.86,VALID,0,VALID,91.1804,VALID,0,VALID,25.1248,VALID,80,VALID,0,
2009-09-21, 02:20:04,VALID,1003.86,VALID,0,VALID,91.3253,VALID,0,VALID,25.1053,VALID,80,VALID,0,
2009-09-21, 02:21:04,VALID,1003.91,VALID,0,VALID,91.4703,VALID,0,VALID,25.0839,VALID,81,VALID,0,
2009-09-21, 02:22:04,VALID,1003.96,VALID,0,VALID,91.5847,VALID,0,VALID,25.1053,VALID,186,VALID,0,
2009-09-21, 02:23:04,VALID,1003.93,VALID,0,VALID,91.7602,VALID,0,VALID,25.1034,VALID,208,VALID,0.114844,
2009-09-21, 02:24:04,VALID,1003.91,VALID,0,VALID,91.7068,VALID,0,VALID,25.1248,VALID,285,VALID,0,
2009-09-21, 02:25:04,VALID,1003.91,VALID,0,VALID,91.5084,VALID,0,VALID,25.1034,VALID,239,VALID,0.526563,
2009-09-21, 02:26:04,VALID,1003.91,VALID,0,VALID,91.4092,VALID,0,VALID,25.1423,VALID,279,VALID,0.686719,
2009-09-21, 02:27:04,VALID,1003.91,VALID,0,VALID,91.3253,VALID,0.100563,VALID,25.1618,VALID,236,VALID,0.558984,
2009-09-21, 02:28:04,VALID,1003.89,VALID,0,VALID,91.188,VALID,0,VALID,25.2027,VALID,269,VALID,0.878516,
2009-09-21, 02:29:04,VALID,1003.91,VALID,0,VALID,90.8752,VALID,0,VALID,25.2007,VALID,193,VALID,1.00352,
2009-09-21, 02:30:04,VALID,1003.95,VALID,0,VALID,90.1276,VALID,0,VALID,25.2202,VALID,274,VALID,1.39336,
2009-09-21, 02:31:04,VALID,1003.94,VALID,0,VALID,89.6393,VALID,0,VALID,25.2592,VALID,291,VALID,1.01953,
2009-09-21, 02:32:04,VALID,1003.96,VALID,0,VALID,89.3418,VALID,0,VALID,25.3195,VALID,295,VALID,0.844531,
2009-09-21, 02:33:04,VALID,1003.99,VALID,0,VALID,88.701,VALID,0,VALID,25.3584,VALID,280,VALID,0.923828,
2009-09-21, 02:34:04,VALID,1004,VALID,0,VALID,87.7398,VALID,0.100563,VALID,25.3779,VALID,230,VALID,1.00937,
2009-09-21, 02:35:04,VALID,1003.96,VALID,0,VALID,87.0837,VALID,0,VALID,25.3565,VALID,256,VALID,1.38164,
2009-09-21, 02:36:04,VALID,1003.95,VALID,0,VALID,86.5802,VALID,0,VALID,25.376,VALID,221,VALID,1.18594,
2009-09-21, 02:37:04,VALID,1003.97,VALID,0,VALID,86.2598,VALID,0.100563,VALID,25.3584,VALID,260,VALID,1.97734,
2009-09-21, 02:38:04,VALID,1003.97,VALID,0,VALID,86.6031,VALID,0,VALID,25.3176,VALID,287,VALID,2.49219,
2009-09-21, 02:39:04,VALID,1003.93,VALID,0,VALID,86.954,VALID,0,VALID,25.339,VALID,285,VALID,1.54492,
2009-09-21, 02:40:04,VALID,1003.97,VALID,0,VALID,87.1142,VALID,0,VALID,25.3176,VALID,246,VALID,0.528906,
2009-09-21, 02:41:04,VALID,1003.96,VALID,0,VALID,87.2591,VALID,0,VALID,25.2981,VALID,227,VALID,1.74688,
2009-09-21, 02:42:04,VALID,1003.89,VALID,0,VALID,87.5185,VALID,0.100563,VALID,25.3176,VALID,259,VALID,0.966797,
2009-09-21, 02:43:04,VALID,1003.92,VALID,0,VALID,87.8237,VALID,0,VALID,25.2981,VALID,274,VALID,1.48906,
2009-09-21, 02:44:04,VALID,1003.89,VALID,0.5,VALID,88.2051,VALID,0,VALID,25.2592,VALID,198,VALID,1.40547,
2009-09-21, 02:45:04,VALID,1003.89,VALID,0,VALID,88.968,VALID,0,VALID,25.1618,VALID,276,VALID,1.47305,
2009-09-21, 02:46:04,VALID,1003.88,VALID,0,VALID,89.6851,VALID,0,VALID,25.0858,VALID,274,VALID,1.08828,
2009-09-21, 02:47:04,VALID,1003.92,VALID,0,VALID,90.2344,VALID,0,VALID,24.9671,VALID,263,VALID,1.67031,
2009-09-21, 02:48:04,VALID,1003.91,VALID,0,VALID,90.8142,VALID,0,VALID,24.8716,VALID,205,VALID,2.64258,
2009-09-21, 02:49:04,VALID,1003.98,VALID,0,VALID,91.4398,VALID,0,VALID,24.7335,VALID,284,VALID,1.16875,
2009-09-21, 02:50:04,VALID,1003.95,VALID,0.5,VALID,91.9204,VALID,0,VALID,24.675,VALID,284,VALID,1.97383,
2009-09-21, 02:51:04,VALID,1003.99,VALID,0,VALID,92.4544,VALID,0,VALID,24.5777,VALID,309,VALID,1.34297,
2009-09-21, 02:52:04,VALID,1003.92,VALID,0,VALID,92.8206,VALID,0,VALID,24.5388,VALID,141,VALID,1.20078,
2009-09-21, 02:53:04,VALID,1003.99,VALID,0.5,VALID,93.1486,VALID,0,VALID,24.4609,VALID,252,VALID,1.46055,
2009-09-21, 02:54:04,VALID,1003.98,VALID,0.5,VALID,93.2783,VALID,0,VALID,24.4238,VALID,240,VALID,1.55664,
2009-09-21, 02:55:04,VALID,1003.99,VALID,0,VALID,93.4233,VALID,0,VALID,24.3246,VALID,280,VALID,1.61406,
2009-09-21, 02:56:04,VALID,1004.01,VALID,0.5,VALID,93.5682,VALID,0,VALID,24.2681,VALID,272,VALID,1.38398,
2009-09-21, 02:57:04,VALID,1004.08,VALID,0.5,VALID,93.6369,VALID,0,VALID,24.1902,VALID,217,VALID,1.22266,
2009-09-21, 02:58:04,VALID,1004.08,VALID,0,VALID,93.7208,VALID,0,VALID,24.1318,VALID,268,VALID,1.53203,
2009-09-21, 02:59:04,VALID,1004.11,VALID,1,VALID,93.8886,VALID,0,VALID,24.0929,VALID,185,VALID,0.944141,
2009-09-21, 03:00:04,VALID,1004.09,VALID,1,VALID,94.0717,VALID,0,VALID,24.0734,VALID,196,VALID,2.06641,
2009-09-21, 03:01:04,VALID,1004.13,VALID,0.5,VALID,94.2396,VALID,0,VALID,24.0539,VALID,241,VALID,2.17969,
2009-09-21, 03:02:04,VALID,1004.02,VALID,1.5,VALID,94.3769,VALID,0,VALID,24.015,VALID,250,VALID,3.25547,
2009-09-21, 03:03:04,VALID,1004.03,VALID,1,VALID,94.4227,VALID,0,VALID,23.9371,VALID,153,VALID,2.19453,
2009-09-21, 03:04:04,VALID,1004.02,VALID,1.5,VALID,94.4379,VALID,0,VALID,23.7991,VALID,206,VALID,2.55273,
2009-09-21, 03:05:04,VALID,1004.07,VALID,1.5,VALID,94.4532,VALID,0,VALID,23.723,VALID,220,VALID,3.64141,
2009-09-21, 03:06:04,VALID,1004.01,VALID,1,VALID,94.5752,VALID,0,VALID,23.6823,VALID,221,VALID,1.37812,
2009-09-21, 03:07:04,VALID,1004.02,VALID,1,VALID,94.7278,VALID,0,VALID,23.723,VALID,201,VALID,2.69883,
2009-09-21, 03:08:04,VALID,1004.06,VALID,1,VALID,94.8194,VALID,0,VALID,23.6628,VALID,207,VALID,2.67305,
2009-09-21, 03:09:04,VALID,1004.07,VALID,1,VALID,94.888,VALID,0,VALID,23.6257,VALID,223,VALID,1.96172,
2009-09-21, 03:10:04,VALID,1004.07,VALID,0.5,VALID,94.9262,VALID,0,VALID,23.585,VALID,180,VALID,1.23594,
2009-09-21, 03:11:04,VALID,1004.07,VALID,0.5,VALID,95.0101,VALID,0,VALID,23.5868,VALID,197,VALID,1.96563,
2009-09-21, 03:12:04,VALID,1004.08,VALID,0.5,VALID,95.0787,VALID,0,VALID,23.585,VALID,349,VALID,0.669141,
2009-09-21, 03:13:04,VALID,1004.02,VALID,0.5,VALID,95.155,VALID,0,VALID,23.6239,VALID,319,VALID,1.6707,
2009-09-21, 03:14:04,VALID,1004.05,VALID,0,VALID,95.2161,VALID,0,VALID,23.6823,VALID,268,VALID,1.41055,
2009-09-21, 03:15:04,VALID,1004.05,VALID,0.5,VALID,95.2771,VALID,0,VALID,23.7035,VALID,118,VALID,1.12266,
2009-09-21, 03:16:04,VALID,1004,VALID,0.5,VALID,95.3152,VALID,0.100563,VALID,23.7212,VALID,209,VALID,2.48633,
2009-09-21, 03:17:04,VALID,1004.02,VALID,1,VALID,95.3229,VALID,0,VALID,23.7601,VALID,221,VALID,2.26758,
2009-09-21, 03:18:04,VALID,1004.03,VALID,1,VALID,95.361,VALID,0,VALID,23.7619,VALID,142,VALID,1.03086,
2009-09-21, 03:19:04,VALID,1003.99,VALID,1.5,VALID,95.3686,VALID,0,VALID,23.7035,VALID,185,VALID,2.1082,
2009-09-21, 03:20:04,VALID,1004.01,VALID,1.5,VALID,95.3991,VALID,0,VALID,23.6434,VALID,201,VALID,1.60781,
2009-09-21, 03:21:04,VALID,1003.95,VALID,1.5,VALID,95.422,VALID,0.100563,VALID,23.6044,VALID,173,VALID,1.18477,
2009-09-21, 03:22:04,VALID,1003.94,VALID,1.5,VALID,95.4144,VALID,0,VALID,23.6452,VALID,189,VALID,1.86523,
2009-09-21, 03:23:04,VALID,1003.9,VALID,1,VALID,95.4449,VALID,0,VALID,23.6239,VALID,207,VALID,1.96367,
2009-09-21, 03:24:04,VALID,1003.91,VALID,1.5,VALID,95.4678,VALID,0,VALID,23.6646,VALID,199,VALID,2.29844,
2009-09-21, 03:25:04,VALID,1003.87,VALID,1.5,VALID,95.4907,VALID,0,VALID,23.6823,VALID,194,VALID,2.0207,
2009-09-21, 03:26:04,VALID,1003.89,VALID,1.5,VALID,95.5136,VALID,0,VALID,23.6434,VALID,206,VALID,1.56484,
2009-09-21, 03:27:04,VALID,1003.86,VALID,1,VALID,95.506,VALID,0,VALID,23.6452,VALID,175,VALID,1.64453,
2009-09-21, 03:28:04,VALID,1003.83,VALID,1,VALID,95.5288,VALID,0,VALID,23.6646,VALID,222,VALID,1.20508,
2009-09-21, 03:29:04,VALID,1003.89,VALID,1,VALID,95.567,VALID,0,VALID,23.6859,VALID,205,VALID,1.26602,
2009-09-21, 03:30:04,VALID,1003.96,VALID,1,VALID,95.567,VALID,0,VALID,23.6646,VALID,213,VALID,2.21797,
2009-09-21, 03:31:04,VALID,1003.93,VALID,1.5,VALID,95.5746,VALID,0,VALID,23.6841,VALID,182,VALID,2.31641,
2009-09-21, 03:32:04,VALID,1003.94,VALID,1.5,VALID,95.5899,VALID,0,VALID,23.723,VALID,186,VALID,1.46797,
2009-09-21, 03:33:04,VALID,1003.93,VALID,2,VALID,95.5899,VALID,0,VALID,23.7814,VALID,187,VALID,2.01484,
2009-09-21, 03:34:04,VALID,1003.95,VALID,1.5,VALID,95.6128,VALID,0,VALID,23.8009,VALID,184,VALID,3.25625,
2009-09-21, 03:35:04,VALID,1003.95,VALID,2,VALID,95.6128,VALID,0,VALID,23.8203,VALID,199,VALID,2.23789,
2009-09-21, 03:36:04,VALID,1003.98,VALID,1.5,VALID,95.6356,VALID,0,VALID,23.7814,VALID,182,VALID,2.93633,
2009-09-21, 03:37:04,VALID,1003.9,VALID,1.5,VALID,95.6433,VALID,0,VALID,23.8009,VALID,165,VALID,3.53555,
2009-09-21, 03:38:04,VALID,1004,VALID,1,VALID,95.6433,VALID,0,VALID,23.8203,VALID,167,VALID,2.05859,
2009-09-21, 03:39:04,VALID,1003.99,VALID,0.5,VALID,95.6585,VALID,0,VALID,23.8398,VALID,197,VALID,1.97031,
2009-09-21, 03:40:04,VALID,1004.02,VALID,0,VALID,95.6585,VALID,0,VALID,23.8398,VALID,129,VALID,0.871875,
2009-09-21, 03:41:04,VALID,1004,VALID,0.5,VALID,95.6967,VALID,0,VALID,23.8009,VALID,207,VALID,1.08281,
2009-09-21, 03:42:04,VALID,1004.1,VALID,0.5,VALID,95.6738,VALID,0,VALID,23.7407,VALID,221,VALID,1.84883,
2009-09-21, 03:43:04,VALID,1004.06,VALID,0.5,VALID,95.689,VALID,0,VALID,23.8009,VALID,167,VALID,1.13906,
2009-09-21, 03:44:04,VALID,1004.09,VALID,0,VALID,95.7119,VALID,0,VALID,23.8009,VALID,190,VALID,1.51016,
2009-09-21, 03:45:04,VALID,1004.13,VALID,0.5,VALID,95.7043,VALID,0,VALID,23.838,VALID,190,VALID,1.17695,